Regional Weather Roundup
Issued by NWS

Home | Current Version | Previous Version | Text Only | Print | Product List | Glossary Off
Versions: 1 2 3 4 5 6 7 8 9 10 11 12 13 14 15 16 17 18 19 20 21 22 23 24 25 26 27

000
ASUS45 KTFX 260010
RWRMT
MONTANA REGIONAL WEATHER ROUNDUP
NATIONAL WEATHER SERVICE GREAT FALLS MT
600 PM MDT TUE JUL 25 2017

NOTE: "FAIR" INDICATES FEW OR NO CLOUDS BELOW 12000 FEET WITH NO
SIGNIFICANT WEATHER AND/OR OBSTRUCTIONS TO VISIBILITY.

MTZ001>007-043-260100-
WEST OF THE DIVIDE

CITY           SKY/WX    TMP DP  RH WIND       PRES   REMARKS
KALISPELL      SUNNY     87  35  15 S6        29.97F
BUTTE          SUNNY     81  45  28 S16       30.12S
MULLAN PASS    SUNNY     74  36  25 NW7       30.19F
ANACONDA         N/A     84  43  23 NW3       30.06S
DEER LODGE       N/A     84  36  17 N5        30.06S
EUREKA           N/A     88  34  14 MISG      29.97S
HAMILTON         N/A     90  37  15 N3        29.97F
LIBBY            N/A     90  32  12 NW6       29.94F
PLAINS           N/A     92  39  15 NW7       29.95S
$$

MTZ008-052>055-260100-
SOUTHWEST MONTANA

CITY           SKY/WX    TMP DP  RH WIND       PRES   REMARKS
BOZEMAN        PTSUNNY   79  49  34 SE9       30.08F
DILLON         CLOUDY    76  54  46 NW6       30.10F
W YELLOWSTONE  CLOUDY    64  50  59 SE7       30.28R
ENNIS          SUNNY     77  48  36 S14       30.19F
THREE FORKS      N/A     81  50  33 E7        30.05F
TWIN BRIDGES     N/A     75  52  44 E1        30.08
$$

MTZ009-010-012-014-046-048-049-054-260100-
EAST SLOPES AND CENTRAL MONTANA

CITY           SKY/WX    TMP DP  RH WIND       PRES   REMARKS
CUT BANK       SUNNY     79  36  21 VRB3      30.07F
GREAT FALLS    SUNNY     84  34  16 NE8       30.03F
HELENA         SUNNY     89  44  20 E14       29.99F
CHOTEAU          N/A     82  34  17 NE14G22   30.07S
$$

MTZ011-013-016-021-045-047-050-051-260100-
NORTH CENTRAL MONTANA

CITY           SKY/WX    TMP DP  RH WIND       PRES   REMARKS
HAVRE          SUNNY     83  38  20 SW3       30.03F
LEWISTOWN      PTSUNNY   81  40  23 E15       30.09S
N BAR RANCH      N/A     75  39  27 S10G16    30.16S
CHINOOK          N/A     82  41  23 CALM      30.03S
$$

MTZ017>020-022>027-061-062-260100-
NORTHEAST MONTANA

CITY           SKY/WX    TMP DP  RH WIND       PRES   REMARKS
GLASGOW        MOSUNNY   82  41  23 W9        30.04S
JORDAN           N/A     84  39  20 VRB3      30.05F
SIDNEY         SUNNY     86  44  23 NW8       30.01S
WOLF POINT     MOSUNNY   87  40  19 NW9       30.02S
MALTA          SUNNY     82  43  24 S8        30.03F
PLENTYWOOD       N/A     81  43  26 NW13G21   30.02S
POPLAR           N/A     84  43  23 NW7       30.02S
SCOBEY           N/A     81  42  25 S10       30.03S
$$

MTZ028>42-056>058-260100-
SOUTHCENTRAL AND SOUTHEAST MONTANA

CITY           SKY/WX    TMP DP  RH WIND       PRES   REMARKS
BAKER          CLOUDY    84  38  19 NE5       30.07F
BILLINGS       CLOUDY    74  43  32 S9        30.11F
LIVINGSTON     CLOUDY    69  44  40 E6        30.15F
MILES CITY     CLOUDY    84  38  19 NE3       30.05S
BIG TIMBER     SUNNY     68  43  40 VRB7      30.17S
EKALAKA          N/A     77  46  33 E2        30.08R
FORSYTH          N/A     81  41  24 CALM      30.05F
LAUREL           N/A     73  41  31 CALM      30.10F
$$

REGIONAL REPORTS...DAKOTAS

CITY           SKY/WX    TMP DP  RH WIND       PRES   REMARKS
WILLISTON      SUNNY     88  43  20 NW13      30.01R
MINOT          SUNNY     84  51  31 NW20G26   29.96S
DICKINSON      PTSUNNY   84  46  26 N7        30.03S
BEACH            N/A     82  39  21 CALM      30.09F
CROSBY           N/A     81  48  32 NW13G21   30.00S
TIOGA            N/A     82  45  26 NW15      30.03R
WATFORD CITY     N/A     86  45  23 NW9       30.00S
BISMARCK       CLOUDY    86  49  27 NE7       29.98S
GRAND FORKS    MOSUNNY   83  60  45 W12       29.88S
FARGO          SUNNY     81  70  69 W8        29.89F
BUFFALO SD       N/A     79  50  36 E7        30.01S
RAPID CITY     CLOUDY    84  60  44 NE18      30.01S
$$

REGIONAL REPORTS...WYOMING/IDAHO/WASHINGTON

CITY           SKY/WX    TMP DP  RH WIND       PRES   REMARKS
GILLETTE       LGT RAIN  67  63  87 NW7       30.16R
SHERIDAN       LGT RAIN  65  59  81 SW6       30.17S
BUFFALO WY     LGT RAIN  64  58  80 SE6       30.23S
CODY           CLOUDY    62  54  74 SE7       30.24R
YELLOWSTONE LA   N/A     53  53 100 CALM      30.40F
IDAHO FALLS    CLOUDY    80  51  36 S7        30.11F
BOISE          SUNNY     94  47  20 NW12      29.92F HX  90
SPOKANE        MOSUNNY   88  31  13 NW7       29.98F
$$

REGIONAL REPORTS...ALBERTA

CITY           SKY/WX    TMP DP  RH WIND       PRES   REMARKS
EDMONTON       SUNNY     75  55  50 W6        30.03S
CALGARY        MOSUNNY   73  45  35 E5        30.09F
LETHBRIDGE     MOSUNNY   79  43  27 NE15      30.05F
MEDICINE HAT   MOSUNNY   79  43  27 S7        30.03F
WATERTON GATE    N/A     77  41  27 NE9         N/A
MILK RIVER       N/A     79  41  25 NE9         N/A
ONEFOUR          N/A     79  36  21 NE8         N/A
$$

REGIONAL REPORTS...SASKATCHEWAN

CITY           SKY/WX    TMP DP  RH WIND       PRES   REMARKS
SWIFT CURRENT  SUNNY     77  43  29 NW10      30.06S
REGINA         PTSUNNY   75  52  43 NW12G21   30.00R
SASKATOON      PTSUNNY   75  55  50 NW14G22   30.02R
CYPRESS HILLS    N/A     70  39  32 NW6         N/A
VAL MARIE        N/A     81  39  22 N9          N/A
ROCKGLEN         N/A     75  41  29 N10         N/A
ASSINIBOIA       N/A     75  50  41 W6          N/A
$$




USA.gov is the U.S. government's official web portal to all federal, state and local government web resources and services.